Time,TemperatureF,DewpointF,PressureIn,WindDirection,WindDirectionDegrees,WindSpeedMPH,WindSpeedGustMPH,Humidity,HourlyPrecipIn,Conditions,Clouds,dailyrainin,SoftwareType,DateUTC
2013-01-31 00:03:00,39.6,31.0,30.14,South,174,3.0,3.0,72,0.00,,,0.00,weatherlink.com 1.10,2013-01-31 06:03:00,
2013-01-31 00:18:00,39.6,32.0,30.14,South,174,0.0,0.0,73,0.00,,,0.00,weatherlink.com 1.10,2013-01-31 06:18:00,
2013-01-31 00:34:00,39.6,29.0,30.14,South,174,1.0,3.0,67,0.00,,,0.00,weatherlink.com 1.10,2013-01-31 06:34:00,
2013-01-31 00:50:00,39.6,29.0,30.14,South,174,0.0,3.0,67,0.00,,,0.00,weatherlink.com 1.10,2013-01-31 06:50:00,
2013-01-31 01:03:00,39.3,31.0,30.15,South,174,1.0,4.0,71,0.00,,,0.00,weatherlink.com 1.10,2013-01-31 07:03:00,
2013-01-31 01:18:00,39.8,31.0,30.15,South,188,3.0,5.0,72,0.00,,,0.00,weatherlink.com 1.10,2013-01-31 07:18:00,
2013-01-31 01:33:00,40.4,31.0,30.15,South,171,3.0,5.0,69,0.00,,,0.00,weatherlink.com 1.10,2013-01-31 07:33:00,
2013-01-31 01:48:00,39.8,30.0,30.14,South,171,1.0,4.0,68,0.00,,,0.00,weatherlink.com 1.10,2013-01-31 07:48:00,
2013-01-31 02:05:00,39.6,29.0,30.15,South,171,2.0,5.0,66,0.00,,,0.00,weatherlink.com 1.10,2013-01-31 08:05:00,
2013-01-31 02:19:00,39.5,31.0,30.16,SSW,193,4.0,6.0,72,0.00,,,0.00,weatherlink.com 1.10,2013-01-31 08:19:00,
2013-01-31 02:34:00,40.1,32.0,30.15,South,186,2.0,5.0,72,0.00,,,0.00,weatherlink.com 1.10,2013-01-31 08:34:00,
2013-01-31 02:50:00,39.9,32.0,30.16,SSW,194,2.0,6.0,72,0.00,,,0.00,weatherlink.com 1.10,2013-01-31 08:50:00,
2013-01-31 03:05:00,40.4,32.0,30.16,South,186,4.0,7.0,72,0.00,,,0.00,weatherlink.com 1.10,2013-01-31 09:05:00,
2013-01-31 03:19:00,41.0,32.0,30.15,SSW,199,5.0,6.0,71,0.00,,,0.00,weatherlink.com 1.10,2013-01-31 09:19:00,
2013-01-31 03:34:00,40.5,29.0,30.16,South,171,4.0,7.0,64,0.00,,,0.00,weatherlink.com 1.10,2013-01-31 09:34:00,
2013-01-31 03:49:00,39.3,27.0,30.16,South,169,4.0,6.0,61,0.00,,,0.00,weatherlink.com 1.10,2013-01-31 09:49:00,
2013-01-31 04:04:00,38.8,27.0,30.16,South,169,2.0,5.0,62,0.00,,,0.00,weatherlink.com 1.10,2013-01-31 10:04:00,
2013-01-31 04:19:00,38.4,27.0,30.16,South,177,2.0,5.0,64,0.00,,,0.00,weatherlink.com 1.10,2013-01-31 10:19:00,
2013-01-31 04:34:00,38.4,26.0,30.16,South,181,3.0,7.0,62,0.00,,,0.00,weatherlink.com 1.10,2013-01-31 10:34:00,
2013-01-31 04:49:00,38.8,26.0,30.16,SSW,200,4.0,9.0,61,0.00,,,0.00,weatherlink.com 1.10,2013-01-31 10:49:00,
2013-01-31 05:04:00,38.9,27.0,30.15,SSE,161,5.0,8.0,62,0.00,,,0.00,weatherlink.com 1.10,2013-01-31 11:04:00,
2013-01-31 05:19:00,38.9,26.0,30.16,SSE,165,2.0,6.0,60,0.00,,,0.00,weatherlink.com 1.10,2013-01-31 11:19:00,
2013-01-31 05:34:00,38.6,26.0,30.15,South,178,4.0,5.0,62,0.00,,,0.00,weatherlink.com 1.10,2013-01-31 11:34:00,
2013-01-31 05:49:00,38.5,26.0,30.15,South,177,2.0,6.0,60,0.00,,,0.00,weatherlink.com 1.10,2013-01-31 11:49:00,
2013-01-31 06:04:00,37.9,25.0,30.15,South,173,3.0,6.0,61,0.00,,,0.00,weatherlink.com 1.10,2013-01-31 12:04:00,
2013-01-31 06:19:00,37.3,25.0,30.15,SSE,167,3.0,6.0,61,0.00,,,0.00,weatherlink.com 1.10,2013-01-31 12:19:00,
2013-01-31 06:34:00,36.9,25.0,30.16,South,181,4.0,7.0,62,0.00,,,0.00,weatherlink.com 1.10,2013-01-31 12:34:00,
2013-01-31 06:49:00,36.4,25.0,30.16,SSW,198,4.0,5.0,64,0.00,,,0.00,weatherlink.com 1.10,2013-01-31 12:49:00,
2013-01-31 07:04:00,36.1,26.0,30.17,South,190,2.0,4.0,66,0.00,,,0.00,weatherlink.com 1.10,2013-01-31 13:04:00,
2013-01-31 07:19:00,35.9,25.0,30.17,South,180,2.0,4.0,66,0.00,,,0.00,weatherlink.com 1.10,2013-01-31 13:19:00,
2013-01-31 07:34:00,35.5,25.0,30.18,South,169,0.0,4.0,67,0.00,,,0.00,weatherlink.com 1.10,2013-01-31 13:34:00,
2013-01-31 07:49:00,35.6,26.0,30.18,South,182,1.0,4.0,67,0.00,,,0.00,weatherlink.com 1.10,2013-01-31 13:49:00,
2013-01-31 08:04:00,36.1,26.0,30.19,South,180,1.0,3.0,68,0.00,,,0.00,weatherlink.com 1.10,2013-01-31 14:04:00,
2013-01-31 08:20:00,37.5,27.0,30.19,South,180,2.0,5.0,66,0.00,,,0.00,weatherlink.com 1.10,2013-01-31 14:20:00,
2013-01-31 08:35:00,38.8,26.0,30.20,SSE,162,4.0,7.0,61,0.00,,,0.00,weatherlink.com 1.10,2013-01-31 14:35:00,
2013-01-31 08:50:00,39.4,26.0,30.20,South,180,6.0,8.0,60,0.00,,,0.00,weatherlink.com 1.10,2013-01-31 14:50:00,
2013-01-31 09:05:00,40.5,27.0,30.21,SSW,204,4.0,9.0,60,0.00,,,0.00,weatherlink.com 1.10,2013-01-31 15:05:00,
2013-01-31 09:20:00,41.5,28.0,30.21,South,177,4.0,8.0,60,0.00,,,0.00,weatherlink.com 1.10,2013-01-31 15:20:00,
2013-01-31 09:35:00,43.0,29.0,30.21,SSW,196,5.0,8.0,57,0.00,,,0.00,weatherlink.com 1.10,2013-01-31 15:35:00,
2013-01-31 09:50:00,44.9,28.0,30.21,SW,219,5.0,7.0,52,0.00,,,0.00,weatherlink.com 1.10,2013-01-31 15:50:00,
2013-01-31 10:06:00,46.6,29.0,30.22,South,173,5.0,9.0,51,0.00,,,0.00,weatherlink.com 1.10,2013-01-31 16:06:00,
2013-01-31 10:19:00,48.5,31.0,30.21,South,190,3.0,10.0,52,0.00,,,0.00,weatherlink.com 1.10,2013-01-31 16:19:00,
2013-01-31 10:35:00,50.5,31.0,30.22,South,184,3.0,9.0,48,0.00,,,0.00,weatherlink.com 1.10,2013-01-31 16:35:00,
2013-01-31 10:52:00,52.5,32.0,30.22,SSW,206,5.0,10.0,46,0.00,,,0.00,weatherlink.com 1.10,2013-01-31 16:52:00,
2013-01-31 11:06:00,53.4,33.0,30.21,South,191,6.0,9.0,46,0.00,,,0.00,weatherlink.com 1.10,2013-01-31 17:06:00,
2013-01-31 11:21:00,54.7,34.0,30.21,SSE,165,3.0,7.0,45,0.00,,,0.00,weatherlink.com 1.10,2013-01-31 17:21:00,
2013-01-31 11:35:00,56.0,33.0,30.22,SSE,167,4.0,7.0,42,0.00,,,0.00,weatherlink.com 1.10,2013-01-31 17:35:00,
2013-01-31 11:52:00,57.5,33.0,30.21,SSW,196,3.0,8.0,40,0.00,,,0.00,weatherlink.com 1.10,2013-01-31 17:52:00,
2013-01-31 12:06:00,59.0,32.0,30.21,SSW,203,4.0,10.0,36,0.00,,,0.00,weatherlink.com 1.10,2013-01-31 18:06:00,
2013-01-31 12:21:00,59.8,33.0,30.20,South,190,6.0,9.0,36,0.00,,,0.00,weatherlink.com 1.10,2013-01-31 18:21:00,
2013-01-31 12:36:00,61.3,33.0,30.18,SW,217,5.0,11.0,34,0.00,,,0.00,weatherlink.com 1.10,2013-01-31 18:36:00,
2013-01-31 12:52:00,62.2,31.0,30.17,SSW,200,6.0,13.0,31,0.00,,,0.00,weatherlink.com 1.10,2013-01-31 18:52:00,
2013-01-31 13:21:00,64.7,29.0,30.14,SSW,211,6.0,13.0,26,0.00,,,0.00,weatherlink.com 1.10,2013-01-31 19:21:00,
2013-01-31 13:36:00,64.3,34.0,30.13,SW,223,5.0,13.0,32,0.00,,,0.00,weatherlink.com 1.10,2013-01-31 19:36:00,
2013-01-31 13:53:00,65.4,32.0,30.13,South,185,5.0,14.0,29,0.00,,,0.00,weatherlink.com 1.10,2013-01-31 19:53:00,
2013-01-31 14:07:00,65.1,34.0,30.12,SW,214,5.0,11.0,31,0.00,,,0.00,weatherlink.com 1.10,2013-01-31 20:07:00,
2013-01-31 14:22:00,65.4,34.0,30.12,SW,214,6.0,11.0,31,0.00,,,0.00,weatherlink.com 1.10,2013-01-31 20:22:00,
2013-01-31 14:37:00,65.6,34.0,30.12,SW,223,4.0,11.0,31,0.00,,,0.00,weatherlink.com 1.10,2013-01-31 20:37:00,
2013-01-31 14:53:00,65.9,32.0,30.12,SSW,201,6.0,13.0,28,0.00,,,0.00,weatherlink.com 1.10,2013-01-31 20:53:00,
2013-01-31 15:08:00,66.0,29.0,30.12,South,181,3.0,11.0,25,0.00,,,0.00,weatherlink.com 1.10,2013-01-31 21:08:00,
2013-01-31 15:22:00,66.6,28.0,30.12,SW,223,2.0,15.0,23,0.00,,,0.00,weatherlink.com 1.10,2013-01-31 21:22:00,
2013-01-31 15:37:00,66.3,32.0,30.11,SSW,211,7.0,9.0,28,0.00,,,0.00,weatherlink.com 1.10,2013-01-31 21:37:00,
2013-01-31 15:53:00,65.3,32.0,30.11,SSW,210,6.0,8.0,29,0.00,,,0.00,weatherlink.com 1.10,2013-01-31 21:53:00,
2013-01-31 16:07:00,64.7,34.0,30.11,SSW,202,4.0,10.0,32,0.00,,,0.00,weatherlink.com 1.10,2013-01-31 22:07:00,
2013-01-31 16:22:00,64.3,33.0,30.10,SSW,200,3.0,10.0,31,0.00,,,0.00,weatherlink.com 1.10,2013-01-31 22:22:00,
2013-01-31 16:37:00,65.4,31.0,30.11,SSW,198,3.0,9.0,28,0.00,,,0.00,weatherlink.com 1.10,2013-01-31 22:37:00,
2013-01-31 16:53:00,65.0,30.0,30.11,SW,233,2.0,6.0,27,0.00,,,0.00,weatherlink.com 1.10,2013-01-31 22:53:00,
2013-01-31 17:07:00,64.8,30.0,30.12,SSW,192,5.0,8.0,27,0.00,,,0.00,weatherlink.com 1.10,2013-01-31 23:07:00,
2013-01-31 17:22:00,64.4,30.0,30.13,WSW,248,1.0,8.0,28,0.00,,,0.00,weatherlink.com 1.10,2013-01-31 23:22:00,
2013-01-31 17:39:00,63.7,30.0,30.14,SW,215,1.0,5.0,28,0.00,,,0.00,weatherlink.com 1.10,2013-01-31 23:39:00,
2013-01-31 17:53:00,62.8,31.0,30.14,South,190,0.0,4.0,30,0.00,,,0.00,weatherlink.com 1.10,2013-01-31 23:53:00,
2013-01-31 18:08:00,61.3,31.0,30.15,WSW,248,1.0,2.0,32,0.00,,,0.00,weatherlink.com 1.10,2013-02-01 00:08:00,
2013-01-31 18:23:00,60.0,31.0,30.16,SW,226,1.0,2.0,34,0.00,,,0.00,weatherlink.com 1.10,2013-02-01 00:23:00,
2013-01-31 18:39:00,58.6,31.0,30.16,SW,219,0.0,0.0,35,0.00,,,0.00,weatherlink.com 1.10,2013-02-01 00:39:00,
2013-01-31 18:53:00,57.6,34.0,30.16,SW,219,0.0,2.0,41,0.00,,,0.00,weatherlink.com 1.10,2013-02-01 00:53:00,
2013-01-31 19:09:00,56.1,35.0,30.17,SSW,213,0.0,3.0,45,0.00,,,0.00,weatherlink.com 1.10,2013-02-01 01:09:00,
2013-01-31 19:23:00,55.0,34.0,30.17,SSW,213,0.0,2.0,45,0.00,,,0.00,weatherlink.com 1.10,2013-02-01 01:23:00,
2013-01-31 19:39:00,53.8,34.0,30.18,NNW,336,0.0,2.0,47,0.00,,,0.00,weatherlink.com 1.10,2013-02-01 01:39:00,
2013-01-31 19:53:00,53.4,31.0,30.20,North,10,0.0,3.0,42,0.00,,,0.00,weatherlink.com 1.10,2013-02-01 01:53:00,
2013-01-31 20:08:00,53.1,30.0,30.20,North,10,0.0,2.0,41,0.00,,,0.00,weatherlink.com 1.10,2013-02-01 02:08:00,
2013-01-31 20:23:00,52.5,30.0,30.22,North,9,2.0,4.0,43,0.00,,,0.00,weatherlink.com 1.10,2013-02-01 02:23:00,
2013-01-31 20:38:00,52.3,31.0,30.23,NNE,23,6.0,6.0,44,0.00,,,0.00,weatherlink.com 1.10,2013-02-01 02:38:00,
2013-01-31 20:55:00,53.2,31.0,30.26,NNE,16,9.0,10.0,43,0.00,,,0.00,weatherlink.com 1.10,2013-02-01 02:55:00,
2013-01-31 21:09:00,53.8,32.0,30.27,ENE,64,10.0,18.0,44,0.00,,,0.00,weatherlink.com 1.10,2013-02-01 03:09:00,
2013-01-31 21:23:00,50.5,32.0,30.28,NNE,32,14.0,18.0,50,0.00,,,0.00,weatherlink.com 1.10,2013-02-01 03:23:00,
2013-01-31 21:38:00,49.0,31.0,30.29,NNE,30,8.0,17.0,50,0.00,,,0.00,weatherlink.com 1.10,2013-02-01 03:38:00,
2013-01-31 21:54:00,47.8,31.0,30.30,NNE,12,7.0,15.0,52,0.00,,,0.00,weatherlink.com 1.10,2013-02-01 03:54:00,
2013-01-31 22:09:00,46.7,30.0,30.30,NE,40,12.0,18.0,53,0.00,,,0.00,weatherlink.com 1.10,2013-02-01 04:09:00,
2013-01-31 22:24:00,45.6,30.0,30.31,ENE,64,5.0,12.0,55,0.00,,,0.00,weatherlink.com 1.10,2013-02-01 04:24:00,
2013-01-31 22:41:00,44.5,30.0,30.32,NE,36,9.0,18.0,57,0.00,,,0.00,weatherlink.com 1.10,2013-02-01 04:41:00,
2013-01-31 22:54:00,43.6,30.0,30.32,ENE,59,9.0,19.0,59,0.00,,,0.00,weatherlink.com 1.10,2013-02-01 04:54:00,
2013-01-31 23:09:00,42.6,29.0,30.33,NNE,32,8.0,17.0,60,0.00,,,0.00,weatherlink.com 1.10,2013-02-01 05:09:00,
2013-01-31 23:24:00,41.8,29.0,30.33,NE,45,15.0,15.0,62,0.00,,,0.00,weatherlink.com 1.10,2013-02-01 05:24:00,
2013-01-31 23:39:00,41.0,27.0,30.34,NE,34,11.0,21.0,59,0.00,,,0.00,weatherlink.com 1.10,2013-02-01 05:39:00,
2013-01-31 23:55:00,40.2,28.0,30.34,NE,49,7.0,14.0,61,0.00,,,0.00,weatherlink.com 1.10,2013-02-01 05:55:00,